Back to catalog

COSMOS 1687

AliveMilitaryHEO
NORAD 16103·PAYLOAD·🇷🇺 Russia

Launched Sep 30, 1985 from Plesetsk Cosmodrome

Loading…

Next Passes (next 24 hours)

TLE

FreshSource: Space-Track

Epoch: Sep 9, 2026, 04:32 UTC

1 16103U 85088A   26252.18895904 -.00000586  00000-0  00000-0 0  9991
2 16103  72.0632   5.6040 5513934 335.0345   6.6790  2.00707377299945

Track COSMOS 1687 in real time with AllMySat

Download on the App Store